FW2977 Weather Reports


Display with metric or nautical units.
time (UTC)temp
F
wind
direction
speed
MPH
gust
MPH
rain 1hr
in
rain 24hr
in
rain mn
in
humidity
%
barometer
mb
20260904041602 70 19 0.0 4.0 0.24 0.51 0.20 95 960.7
20260904040055 70 30 1.0 3.0 0.04 0.31 0.00 94 960.5
20260904034558 70 35 0.0 1.0 0.00 0.37 0.27 94 960.2
20260904033054 71 35 0.0 0.0 0.00 0.37 0.27 93 960.1
20260904031554 71 35 0.0 0.0 0.00 0.37 0.27 93 960.2
20260904030056 71 35 0.0 2.0 0.00 0.37 0.27 93 960.3
20260904024552 71 35 0.0 3.0 0.00 0.92 0.27 93 960.2
20260904023058 71 35 0.0 2.0 0.00 0.92 0.27 93 960.3
20260904021554 71 35 0.0 1.0 0.00 0.92 0.27 93 960.5
20260904020050 72 35 0.0 1.0 0.00 0.92 0.27 93 960.8
20260904014551 72 231 0.0 2.0 0.00 0.96 0.27 92 960.8
20260904013050 72 231 0.0 0.0 0.00 0.96 0.27 92 961.0
20260904011607 72 231 0.0 0.0 0.00 0.96 0.27 91 961.1
20260904010059 73 231 0.0 0.0 0.00 0.96 0.27 91 961.0
20260904004548 73 231 0.0 1.0 0.00 0.96 0.27 91 960.8
20260904003048 72 231 0.0 0.0 0.00 0.96 0.27 91 960.7
20260904001548 72 231 0.0 1.0 0.00 0.96 0.27 91 960.5
20260904000053 73 231 0.0 1.0 0.00 0.96 0.27 91 960.5
20260903234646 73 231 0.0 1.0 0.00 0.96 0.27 91 960.5
20260903233046 73 231 0.0 0.0 0.00 0.96 0.27 90 960.5
20260903231548 74 231 0.0 0.0 0.00 0.96 0.27 90 960.6
20260903230048 74 231 0.0 0.0 0.00 0.96 0.27 89 960.5
20260903224545 75 231 0.0 0.0 0.00 0.96 0.27 87 960.4
20260903223044 75 231 0.0 0.0 0.00 0.96 0.27 87 960.4
20260903221544 75 231 0.0 0.0 0.00 0.96 0.27 86 960.2
20260903220042 76 231 0.0 1.0 0.00 0.96 0.27 86 959.9
20260903214544 76 231 0.0 2.0 0.00 0.96 0.27 87 960.0
20260903213052 76 227 0.0 1.0 0.00 0.96 0.27 87 960.3
20260903211548 76 227 0.0 2.0 0.00 0.96 0.27 87 960.2
20260903210039 76 227 0.0 1.0 0.00 0.96 0.27 86 960.3
20260903204537 75 227 0.0 2.0 0.00 0.96 0.27 87 960.6
20260903203103 74 227 0.0 5.0 0.00 0.96 0.27 87 960.7
20260903201539 75 226 2.0 4.0 0.00 0.96 0.27 87 960.7
20260903200036 76 218 0.0 4.0 0.00 0.96 0.27 85 960.6
20260903194537 77 216 1.0 4.0 0.00 0.96 0.27 85 960.5
20260903193037 76 215 1.0 4.0 0.00 0.96 0.27 86 960.7
20260903191530 75 208 0.0 3.0 0.00 0.96 0.27 88 960.9
20260903190028 75 208 0.0 4.0 0.00 0.96 0.27 88 961.2
20260903184528 75 196 2.0 4.0 0.00 0.96 0.27 86 961.3
20260903183028 75 204 0.0 3.0 0.00 0.96 0.27 87 961.2
20260903181523 74 202 1.0 3.0 0.00 0.96 0.27 88 961.4
20260903180025 74 231 1.0 2.0 0.00 0.96 0.27 88 961.6
20260903174524 73 231 0.0 2.0 0.00 0.96 0.27 88 961.6
20260903173021 75 230 0.0 3.0 0.00 0.96 0.27 88 961.5
20260903171520 75 230 0.0 4.0 0.00 0.96 0.27 87 961.5
20260903170018 74 230 0.0 4.0 0.00 0.96 0.27 89 961.6
20260903164516 74 230 1.0 4.0 0.00 0.97 0.27 89 961.7
20260903163015 74 234 1.0 4.0 0.00 0.97 0.27 89 961.8
20260903161511 73 215 1.0 4.0 0.00 0.97 0.27 89 962.0
20260903160007 72 235 0.0 3.0 0.00 1.02 0.27 92 962.1
20260903154505 71 236 2.0 5.0 0.00 1.02 0.27 92 962.3
20260903153002 70 241 2.0 5.0 0.00 1.02 0.27 93 962.4
20260903151500 70 232 2.0 5.0 0.00 1.02 0.27 95 962.4
20260903150059 69 232 2.0 5.0 0.00 1.02 0.27 97 962.4
20260903144607 68 207 2.0 4.0 0.00 1.50 0.27 97 962.4
20260903143056 68 183 1.0 4.0 0.00 1.50 0.27 97 962.4
20260903141557 68 247 2.0 4.0 0.01 1.50 0.27 97 962.3
20260903140055 69 250 2.0 4.0 0.01 1.50 0.27 97 962.5
20260903134556 69 190 2.0 3.0 0.01 1.50 0.27 97 962.2
20260903133059 69 161 0.0 3.0 0.01 1.50 0.27 98 962.0
20260903131551 69 192 1.0 5.0 0.00 1.49 0.26 98 962.2
20260903130050 68 140 1.0 4.0 0.00 1.49 0.26 98 962.3
20260903124553 67 143 1.0 6.0 0.00 1.49 0.26 98 962.4
20260903123042 67 163 2.0 5.0 0.00 1.49 0.26 98 962.3
20260903121542 67 155 1.0 5.0 0.00 1.49 0.26 98 962.2
20260903120055 66 126 3.0 5.0 0.00 1.49 0.26 98 961.9
20260903114536 65 126 2.0 6.0 0.00 1.49 0.26 98 962.0
20260903113101 65 126 3.0 5.0 0.00 1.49 0.26 97 961.9
20260903111535 65 121 3.0 6.0 0.00 1.49 0.26 97 961.6
20260903110033 65 150 2.0 5.0 0.00 1.49 0.26 97 961.6
20260903104550 65 130 2.0 8.0 0.00 1.49 0.26 97 961.7
20260903103034 65 147 2.0 8.0 0.00 1.49 0.26 98 961.7
20260903101530 65 120 4.0 9.0 0.00 1.49 0.26 98 961.7
20260903100035 65 119 5.0 10.0 0.00 1.49 0.26 97 961.7
20260903094544 65 109 5.0 7.0 0.00 1.49 0.26 97 961.8
20260903093032 64 134 3.0 7.0 0.00 1.49 0.26 97 962.0
20260903091538 64 146 3.0 8.0 0.00 1.49 0.26 97 962.0
20260903090025 64 160 2.0 6.0 0.00 1.49 0.26 97 962.0
20260903084524 64 124 2.0 6.0 0.00 1.49 0.26 97 961.9
20260903083023 64 165 2.0 8.0 0.00 1.49 0.26 97 961.9
20260903081525 64 134 2.0 5.0 0.00 1.49 0.26 97 962.0
20260903080023 64 119 2.0 4.0 0.00 1.49 0.26 97 961.9
20260903074521 64 115 3.0 7.0 0.00 1.49 0.26 97 961.7
20260903073031 64 114 1.0 6.0 0.00 1.49 0.26 97 961.9
20260903071527 64 130 3.0 7.0 0.00 1.49 0.26 97 962.0
20260903070022 64 106 5.0 7.0 0.00 1.49 0.26 97 961.9
20260903064518 64 126 5.0 10.0 0.00 1.49 0.26 97 961.7
20260903063017 64 117 4.0 7.0 0.00 1.49 0.26 97 962.0
20260903061515 64 134 4.0 8.0 0.01 1.49 0.26 97 962.2
20260903060014 64 110 3.0 5.0 0.01 1.49 0.26 97 962.5
20260903054513 64 103 5.0 9.0 0.02 1.49 0.26 97 962.6
20260903053017 64 121 5.0 11.0 0.04 1.49 0.26 97 962.4
20260903051518 64 109 6.0 11.0 0.09 1.48 0.25 97 962.6
20260903050008 65 121 9.0 14.0 0.25 1.48 0.25 97 962.1
20260903044505 66 126 8.0 14.0 0.26 1.47 0.24 97 962.5
20260903043000 66 123 7.0 12.0 0.24 1.44 0.21 97 963.5